RH
19 20 19 18 18 19 20 20 19 20 18 17 18 17 17 17 18 20 14 17 17 13 13 12 8 5 10 10 12 61 48 79 83 60 77 11 8 10 9 10 16 17 80 77 69
21 20 20 20 19 17 16 16 15 15 15 15 15 15 15 15 16 19 19 16 17 16 13 13 13 9 5 5 8 32 94 49 23 27 20 13 15 12 16 22 21 30 51 31 29
18 17 17 17 17 17 16 15 14 14 14 14 13 14 14 13 13 17 19 20 17 17 14 13 14 14 11 7 5 4 7 12 14 20 29 29 22 22 18 39 30 41 30 26 25
18 16 16 16 16 16 16 17 17 16 16 18 17 13 14 15 12 14 14 18 21 18 18 14 15 14 15 11 7 6 6 9 29 48 45 35 39 36 46 35 27 31 28 22 13
16 16 16 16 16 18 20 24 27 24 22 21 22 22 17 16 16 14 15 14 18 20 20 19 15 17 16 15 11 8 7 15 40 57 61 59 81 54 30 30 32 35 43 21 33
28 27 25 25 25 24 24 25 26 30 30 30 26 25 26 20 18 18 16 19 15 18 20 21 20 18 20 17 15 11 8 8 12 48 70 47 50 32 33 36 37 54 56 23 26
35 32 32 30 28 26 26 24 22 25 26 28 31 30 28 31 25 23 21 20 24 25 19 21 22 20 20 21 19 16 11 8 8 9 20 50 46 47 52 43 55 47 38 29 38
20 18 17 16 15 14 13 12 11 11 11 19 16 16 24 35 34 29 25 24 24 25 30 26 22 23 20 20 21 21 17 11 8 8 8 21 41 59 47 57 38 53 49 50 44
11 10 10 10 10 10 10 10 10 10 9 9 9 11 9 12 20 26 29 27 25 24 24 33 34 23 24 20 20 21 19 14 9 8 9 12 15 46 70 46 42 40 15 15 16
14 18 19 19 18 19 17 16 15 13 11 10 9 9 8 7 7 11 19 33 31 27 27 26 35 34 30 24 19 22 21 18 11 9 11 10 19 46 94 100 38 10 9 7 7
20 21 24 26 28 29 26 22 23 18 14 14 16 12 12 11 8 8 8 11 29 34 34 36 35 55 34 23 20 26 24 21 17 10 23 88 76 78 100 44 10 8 9 7 10
21 19 20 22 28 27 27 26 24 22 22 18 19 18 16 17 13 13 9 8 8 20 29 37 42 40 38 29 26 24 27 24 19 15 11 73 51 54 52 9 8 9 12 11 11
24 27 25 22 30 29 27 29 26 25 27 26 19 26 16 21 17 14 20 11 10 9 12 19 26 34 39 42 36 32 30 22 21 19 14 10 60 63 9 10 9 10 12 11 12
27 27 28 26 28 27 25 27 24 25 24 41 22 32 29 22 29 17 16 16 18 11 10 9 13 19 34 47 44 41 33 25 20 21 20 16 9 10 12 45 16 14 14 15 17
31 34 38 37 31 28 27 28 30 29 22 31 33 35 32 30 26 25 20 17 16 22 16 12 10 12 22 28 41 53 39 30 20 16 25 19 13 10 10 100 100 18 16 20 25
27 26 26 26 32 24 26 25 22 20 22 29 27 42 42 35 31 28 25 24 23 17 19 20 18 12 11 20 25 48 44 40 28 16 18 23 22 17 14 31 75 22 19 23 39
23 22 21 30 26 30 22 24 24 22 23 27 26 26 33 39 36 25 28 26 28 22 32 20 26 20 13 10 14 26 40 44 41 21 24 27 29 25 19 17 16 40 38 24 35
24 25 32 34 37 28 33 24 20 24 27 24 24 26 24 28 32 28 26 28 29 26 31 32 25 30 21 16 11 12 20 31 46 49 33 31 23 38 27 21 20 23 21 50 100
22 25 37 33 34 31 30 34 30 29 32 30 23 19 21 27 33 32 24 26 28 27 27 30 40 30 24 27 15 12 12 19 28 49 32 32 23 31 30 28 21 18 20 31 92
20 24 37 34 36 34 30 28 28 32 30 29 29 28 22 20 21 29 29 30 34 30 28 35 32 33 24 20 25 20 17 12 16 28 46 45 31 29 26 28 32 22 19 22 95
23 26 33 30 29 28 27 25 23 23 25 26 29 30 29 29 26 21 26 25 25 34 34 32 18 36 24 17 22 26 25 20 11 14 24 45 43 39 33 30 35 32 27 19 20
22 27 30 26 20 20 24 28 28 29 23 19 20 26 37 35 34 25 22 24 27 28 22 26 28 18 18 24 20 15 20 20 17 13 12 20 44 45 40 35 28 32 30 24 21
12 15 21 17 14 13 11 12 15 23 24 24 26 21 25 30 33 30 35 39 36 27 24 27 21 18 19 14 14 24 24 30 22 25 11 11 20 40 44 41 36 34 34 29 23
7 7 10 11 10 10 10 8 8 12 19 24 25 28 25 23 26 27 24 41 51 42 34 32 28 21 20 23 34 20 33 29 24 21 23 13 12 21 35 44 43 39 35 35 29
6 7 7 8 8 7 7 7 8 9 9 10 16 21 24 28 27 26 31 39 34 37 43 42 32 27 25 26 26 22 23 22 25 22 21 27 17 12 19 34 44 44 40 37 35
6 7 7 7 7 8 8 8 8 8 8 9 9 11 14 17 22 26 29 32 37 36 35 38 30 30 28 31 33 26 24 23 23 28 28 30 27 19 18 17 30 42 44 42 38
10 9 9 10 11 12 14 14 14 15 17 17 15 13 12 13 14 18 24 24 36 40 38 35 36 42 41 37 45 45 28 33 38 51 48 38 34 38 20 22 15 25 36 41 42
Wind_Speed
22 21 20 20 19 20 22 23 23 24 23 22 21 21 20 21 19 15 13 13 15 14 15 16 15 8 9 22 32 39 32 29 22 23 37 31 31 30 25 23 21 22 15 16 20
26 27 27 26 27 27 26 26 25 24 24 23 21 21 23 20 19 17 14 12 11 12 11 12 13 13 7 4 21 34 38 37 36 29 30 33 29 30 23 21 22 18 20 18 21
32 32 32 31 30 30 30 30 28 27 27 23 22 21 21 23 17 18 15 14 11 9 10 8 9 9 11 10 6 16 29 34 37 34 26 29 27 27 24 20 19 18 17 13 16
36 36 36 35 35 35 35 34 32 30 28 26 24 23 21 22 19 18 18 15 14 11 11 10 7 8 7 10 12 9 10 19 29 31 25 21 23 23 20 19 16 17 12 11 5
42 41 41 40 38 37 37 37 36 35 34 33 31 28 27 24 24 20 19 17 15 14 14 13 9 9 9 9 11 11 8 10 23 23 19 25 22 19 19 18 17 13 10 12 11
45 46 46 46 45 44 44 43 42 42 41 41 39 37 33 32 30 26 23 21 20 17 16 17 14 8 10 9 11 12 11 7 2 16 21 20 19 19 20 19 14 11 14 19 16
46 47 47 47 47 46 45 44 43 41 41 41 42 42 42 39 37 35 32 28 25 22 19 18 19 14 10 11 10 13 14 13 9 7 8 11 14 16 15 15 13 13 16 19 17
50 49 49 49 50 50 49 47 45 44 43 45 45 44 45 44 43 42 41 38 32 29 26 22 20 21 14 12 11 10 12 13 12 9 6 8 12 13 9 10 13 13 16 19 21
46 44 42 41 42 42 39 35 35 34 34 37 41 45 46 48 46 46 46 46 42 37 33 29 26 23 23 18 14 13 12 11 11 10 5 10 12 11 10 11 14 16 17 20 19
35 33 34 35 33 34 33 30 30 29 30 31 32 34 39 42 47 49 49 49 48 45 41 37 33 28 26 26 18 16 16 13 10 8 3 12 13 14 11 9 13 11 15 16 13
35 36 35 34 36 34 32 33 31 27 28 26 26 28 29 31 36 41 48 50 50 51 46 43 38 37 34 30 21 22 22 18 13 8 5 4 10 8 7 10 11 13 13 14 18
38 37 38 38 40 39 37 39 37 32 34 30 27 27 26 24 26 26 37 41 45 53 52 48 48 45 41 34 30 25 26 23 19 13 6 9 11 7 5 12 15 17 18 17 19
42 39 39 38 40 39 38 40 38 36 35 40 29 34 27 30 26 26 24 31 36 43 53 53 53 50 47 42 36 31 32 29 24 21 12 12 13 11 12 10 9 14 19 17 14
47 46 46 42 41 43 40 44 37 38 29 44 33 40 41 34 38 25 27 26 26 32 39 49 56 53 51 46 45 37 39 36 31 25 21 15 15 16 15 13 14 12 14 16 16
48 47 50 47 48 44 44 48 43 39 27 41 41 45 47 43 42 41 31 26 25 20 25 41 48 56 55 52 50 49 43 42 37 30 27 19 20 22 16 21 17 17 21 20 18
55 54 55 55 60 51 54 54 51 45 34 45 43 48 51 51 48 45 40 37 34 26 21 29 29 42 58 59 53 56 50 47 44 35 28 27 23 25 25 28 24 22 24 25 22
64 64 64 66 65 62 64 62 61 52 51 52 57 52 53 53 55 50 48 44 40 33 36 29 24 26 41 58 61 58 56 53 48 39 31 35 28 29 29 27 27 25 28 27 24
73 73 75 73 75 70 71 70 63 59 62 68 67 59 56 58 59 56 54 51 50 43 45 39 31 32 30 35 59 62 61 56 53 48 47 45 35 37 33 33 31 29 31 32 33
78 78 79 80 80 80 79 77 71 73 72 76 77 69 61 59 65 66 58 56 56 54 48 46 42 41 29 28 39 54 58 62 65 61 56 47 44 45 43 40 38 36 35 34 38
85 85 90 89 87 86 83 76 79 80 79 82 81 81 76 73 67 69 67 61 61 60 57 52 49 47 41 31 25 30 46 62 62 63 58 54 52 46 48 44 44 43 40 42 39
91 90 98 98 95 94 88 86 88 89 92 90 86 84 82 79 79 76 66 66 67 66 64 63 55 52 50 35 37 34 31 40 67 68 66 62 52 55 55 52 50 50 49 46 46
99 97 106 107 106 102 98 97 98 96 98 98 94 91 88 85 85 85 77 69 73 74 69 67 67 56 53 49 41 36 36 35 51 58 71 71 57 64 63 66 59 58 56 55 50
107 108 115 117 111 112 111 108 107 104 105 106 105 106 102 97 95 91 83 75 76 78 73 73 67 64 61 50 49 50 47 48 41 47 64 73 60 70 71 69 63 60 61 60 57
119 117 120 125 124 122 123 116 115 113 111 114 113 114 112 109 108 101 95 86 85 80 80 80 74 67 67 63 67 57 57 51 49 43 48 57 65 73 78 76 71 69 69 67 63
128 127 129 130 134 134 132 127 129 125 128 125 124 123 120 116 114 107 105 98 97 89 89 90 83 76 70 72 75 64 59 54 53 42 47 46 57 71 82 82 80 76 74 73 70
139 139 142 142 145 146 143 143 140 136 135 133 136 129 130 126 124 118 114 111 106 102 100 97 91 87 80 77 78 74 62 59 56 51 47 45 52 57 70 88 85 84 82 78 75
127 125 125 130 134 137 143 139 136 135 140 143 148 140 140 139 134 126 124 121 113 111 109 105 98 94 85 83 86 86 62 68 66 56 54 40 45 60 63 75 85 87 87 83 80
Wind_Direction
267 268 269 269 272 276 283 287 291 295 302 307 309 315 321 326 333 348 1 9 6 15 23 35 32 67 204 219 221 230 234 238 263 263 256 257 258 260 267 272 268 270 262 274 281
269 270 272 275 278 280 285 289 293 294 296 300 302 303 306 309 314 320 332 345 356 355 4 17 27 18 49 250 231 231 241 258 260 253 248 251 249 257 256 258 257 257 261 271 274
272 274 275 276 278 280 281 283 284 287 288 289 292 294 295 299 305 298 304 314 327 334 340 349 4 16 0 357 318 255 247 246 251 250 241 255 252 252 250 251 253 253 264 272 279
272 273 272 272 274 275 278 279 279 277 275 278 279 283 285 284 289 284 289 287 296 307 309 314 328 333 357 347 346 329 303 269 252 256 253 250 243 247 248 248 249 251 269 269 287
271 272 273 273 272 271 270 270 273 272 271 272 272 271 274 271 273 269 274 277 274 279 290 293 297 308 323 339 339 354 341 292 265 266 259 233 241 242 241 243 242 240 267 256 225
272 272 272 272 272 272 272 269 269 267 268 269 268 268 264 262 267 263 257 264 268 267 267 281 286 292 299 313 328 333 347 336 282 226 241 234 238 231 232 222 240 246 253 240 248
268 269 270 272 272 272 273 273 272 269 268 265 263 262 263 259 257 260 260 257 258 263 262 262 275 279 284 292 309 326 333 337 325 312 245 228 236 223 227 235 237 240 241 245 252
273 274 274 274 276 276 274 274 275 273 268 264 263 261 259 255 254 252 254 255 254 255 259 259 259 269 269 272 283 296 314 319 330 321 337 237 223 220 227 227 236 244 263 263 256
272 274 276 277 278 277 276 274 274 273 271 268 266 264 258 256 253 251 252 251 251 251 252 255 259 255 262 265 265 273 284 292 315 343 356 212 206 187 229 214 230 244 258 255 248
271 274 276 277 275 276 277 276 278 277 275 274 272 269 267 261 254 248 247 246 249 248 251 251 252 256 253 254 252 264 268 274 284 326 297 211 180 189 202 229 247 242 225 216 184
265 265 268 270 271 274 274 272 278 277 275 274 281 268 270 268 264 259 249 244 244 246 245 249 251 247 248 251 245 252 260 262 259 270 316 143 180 157 209 215 208 203 181 179 166
270 270 269 270 272 272 270 269 275 272 277 272 271 273 259 283 263 261 258 253 246 241 243 242 242 246 249 247 250 245 255 255 251 242 235 197 190 216 177 189 187 164 162 178 171
270 272 275 272 270 269 269 269 267 270 272 274 269 273 265 282 279 268 268 257 254 243 238 239 241 244 246 245 245 245 245 247 244 242 220 241 212 206 174 170 185 166 174 193 192
267 269 274 272 270 275 278 277 275 270 270 268 272 269 272 272 277 278 279 259 274 255 240 237 237 237 240 241 240 239 236 240 240 232 235 222 225 194 192 192 179 205 216 198 187
267 269 273 272 271 273 274 273 272 272 269 270 273 271 269 268 269 272 274 273 281 264 264 241 236 235 235 236 238 238 236 238 235 228 237 225 220 225 221 203 200 208 209 192 190
270 268 269 269 271 267 270 271 272 273 281 273 267 262 266 266 264 265 267 267 274 270 272 256 246 237 234 235 234 236 235 236 240 232 224 235 233 232 217 231 227 206 206 202 205
273 271 271 272 270 271 270 269 269 271 272 269 265 260 260 261 264 264 263 266 267 268 271 274 255 255 238 234 234 233 236 236 238 237 232 238 229 243 244 235 228 217 216 217 219
270 270 271 269 270 269 270 271 273 274 272 269 263 260 260 263 262 260 260 262 265 262 263 266 253 267 242 241 233 234 234 236 237 236 233 228 224 239 230 241 234 230 226 231 224
268 268 267 267 267 268 267 269 271 272 269 268 272 268 263 259 259 260 262 259 259 262 260 257 257 259 267 253 238 235 234 229 233 233 231 233 227 227 233 235 238 230 227 225 219
266 266 265 264 263 264 265 266 265 264 263 266 266 269 267 265 260 257 258 256 254 259 262 258 252 261 260 255 252 240 234 234 234 235 236 233 234 232 236 234 240 242 236 227 222
263 262 265 266 265 264 264 263 264 263 263 262 264 264 265 265 263 262 256 256 259 253 254 258 261 260 257 263 255 248 241 241 235 232 233 229 231 237 238 235 236 242 241 232 231
261 260 261 261 263 263 263 263 264 263 264 265 263 263 262 260 260 263 261 254 251 251 255 254 253 261 258 255 262 252 251 262 243 236 233 232 222 236 234 236 229 233 238 241 236
262 261 261 262 262 263 262 261 261 261 262 263 262 261 259 260 259 261 260 255 248 249 249 251 258 263 262 263 268 262 258 260 244 239 236 234 223 234 238 239 238 238 242 245 243
265 263 262 264 264 262 262 262 261 260 260 260 261 261 262 260 261 261 263 256 250 248 251 252 252 262 267 259 257 266 263 264 263 252 246 239 228 229 236 237 238 237 239 239 243
269 267 266 266 266 264 262 261 260 259 259 258 257 258 259 260 261 261 260 257 258 257 252 252 256 257 258 256 260 268 271 269 270 265 258 253 231 226 238 235 237 238 238 242 242
272 271 270 268 267 266 265 263 260 259 258 258 257 255 255 255 256 257 260 260 259 256 256 256 261 259 260 257 255 261 267 274 269 268 275 260 250 229 234 241 234 236 238 239 244
274 272 270 268 266 266 265 264 263 260 259 256 256 254 254 254 252 252 253 255 255 256 257 257 256 254 254 254 253 254 271 268 270 267 268 269 250 244 228 243 238 237 239 240 241